Regional Weather Roundup
Issued by NWS

Home | Current Version | Previous Version | Graphics & Text | Print | Product List | Glossary On
Versions: 1 2 3 4 5 6 7 8 9 10 11 12 13 14 15 16 17 18 19 20 21 22 23 24 25 26 27 28 29 30 31 32 33 34 35 36 37 38 39 40 41 42 43 44 45 46 47 48 49 50
000
ASUS43 KLSX 280959
RWRMO

WEATHER SUMMARY FOR MISSOURI
NATIONAL WEATHER SERVICE SPRINGFIELD MO
500 AM CDT THU AUG 28 2014

NOTE: "FAIR" INDICATES FEW OR NO CLOUDS BELOW 12,000 FEET WITH NO
       SIGNIFICANT WEATHER AND/OR OBSTRUCTIONS TO VISIBILITY.
       CURRENT SKY AND/OR WEATHER CONDITIONS ARE NOT AVAILABLE FOR
       CHILLICOTHE AND FARMINGTON.

MOZ001>031-035>038-043-044-053-054-281100-
...NORTHERN AND WESTERN MISSOURI...

CITY           SKY/WX    TMP DP  RH WIND       PRES   REMARKS
KANSAS CTY INT MOCLDY    75  72  90 SE8       29.98S
KANSAS C DTWN  MOCLDY    77  72  84 E5        29.96S
LEE`S SUMMIT   MOCLDY    75  71  87 CALM      29.98F
ST JOSEPH      CLOUDY    74  71  91 E5        29.97F
KIRKSVILLE     CLOUDY    71  70  96 E7        30.04S FOG

$$
MOZ066>068-077>081-088>096-101>105-281100-
...SOUTHWEST MISSOURI...

CITY           SKY/WX    TMP DP  RH WIND       PRES   REMARKS
SPRINGFIELD    CLEAR     75  69  81 SE8       30.03S
JOPLIN         CLEAR     76  69  79 S10       30.00S

$$
MOZ032>034-039>042-045>050-055>058-069>072-281100-
...CENTRAL MISSOURI...

CITY           SKY/WX    TMP DP  RH WIND       PRES   REMARKS
COLUMBIA       CLEAR     70  68  93 SE7       30.02S
JEFFERSON CITY CLEAR     69  67  93 CALM      30.01S
ROLLA          CLEAR     72  67  84 S8        30.02F
SEDALIA        PTCLDY    72  68  87 E3        30.00S
OSAGE BEACH    CLEAR     72  66  83 S6        30.01F

$$
MOZ051-052-059>065-281100-
...EAST CENTRAL MISSOURI...

CITY           SKY/WX    TMP DP  RH WIND       PRES   REMARKS
ST LOUIS INTL  CLEAR     73  70  90 E3        30.05S
SPIRIT OF STL  CLEAR     71  69  93 CALM      30.02F
ST CHARLES     CLEAR     70  69  97 NE5       30.03S

$$
MOZ072>076-082>087-097>100-106>115-281100-
...SOUTH CENTRAL AND SOUTHEAST MISSOURI...

CITY           SKY/WX    TMP DP  RH WIND       PRES   REMARKS
CAPE GIRARDEAU CLEAR     73  71  93 SW3       30.02S FOG
FARMINGTON     CLEAR     68  66  94 CALM      30.07S
POPLAR BLUFF   CLEAR     73  69  87 CALM      30.01S FOG
WEST PLAINS    CLEAR     69  66  90 CALM      30.06F

$$



USA.gov is the U.S. government's official web portal to all federal, state and local government web resources and services.